Weather History for KARR - June, 2013

Change the Weather History Date:

Friday, June 7, 2013

  Actual Average Record
Temperature  
Mean Temperature 61 °F 67 °F  
Max Temperature 71 °F 78 °F 95 °F (2011)
Min Temperature 50 °F 55 °F 44 °F (2012)
Degree Days  
Heating Degree Days 4 2  
Month to date heating degree days 39 19  
Since 1 June heating degree days 39 19  
Since 1 July heating degree days 6693 6753  
Cooling Degree Days 0 4  
Month to date cooling degree days 3 24  
Year to date cooling degree days 83 65  
Since 1 June cooling degree days 3 24  
Growing Degree Days 12 (Base 50)    
Moisture  
Dew Point 48 °F    
Average Humidity 63    
Maximum Humidity 83    
Minimum Humidity 42    
Precipitation  
Precipitation 0.00 in 0.18 in 0.32 in (2014)
Month to date precipitation 0.61 1.22  
Year to date precipitation 17.47 14.10  
Sea Level Pressure  
Sea Level Pressure 29.93 in    
Wind  
Wind Speed 8 mph (NE)    
Max Wind Speed 17 mph    
Max Gust Speed 22 mph    
Visibility 10 miles    
Events      
T = Trace of Precipitation, MM = Missing Value Source: NWS Daily Summary

Daily Weather History Graph

Daily Weather History Graph

Search for Another Location

Airport or City:

Trip Planner

Search our weather history database for the weather conditions in past years. The results will help you decide how hot, cold, wet, or windy it might be!

Date:

Astronomy

Jun. 07, 2013 Rise Set
Actual Time 5:19 AM CDT 8:26 PM CDT
Civil Twilight 4:45 AM CDT 9:00 PM CDT
Nautical Twilight 4:02 AM CDT 9:43 PM CDT
Astronomical Twilight 3:10 AM CDT 10:35 PM CDT
Moon 4:43 AM CDT (6/7) 7:39 PM CDT (6/7)
Length of Visible Light 16h 14m
Length of Day
15h 07m
Waning Crescent, 1% of the Moon is Illuminated
Jun 7
Waning Crescent
Jun 8
New
Jun 16
First Quarter
Jun 23
Full
Jun 29
Last Quarter

Hourly Weather History & Observations

Time (CDT) Temp. Dew Point Humidity Pressure Visibility Wind Dir Wind Speed Gust Speed Precip Events Conditions
12:52 AM 54.0 °F 46.9 °F 77% 29.92 in 10.0 mi North 8.1 mph - N/A   Overcast
1:52 AM 54.0 °F 46.0 °F 75% 29.92 in 10.0 mi North 4.6 mph - N/A   Overcast
2:52 AM 54.0 °F 46.9 °F 77% 29.91 in 10.0 mi NNE 6.9 mph - N/A   Overcast
3:52 AM 53.1 °F 46.0 °F 77% 29.91 in 10.0 mi NE 8.1 mph - N/A   Overcast
4:52 AM 53.1 °F 46.9 °F 80% 29.92 in 10.0 mi NNE 3.5 mph - N/A   Overcast
5:52 AM 53.1 °F 46.9 °F 80% 29.93 in 10.0 mi North 4.6 mph - N/A   Overcast
6:52 AM 54.0 °F 48.0 °F 80% 29.93 in 10.0 mi North 6.9 mph - N/A   Mostly Cloudy
7:52 AM 57.9 °F 50.0 °F 75% 29.94 in 10.0 mi North 9.2 mph - N/A   Overcast
8:52 AM 60.1 °F 51.1 °F 72% 29.95 in 10.0 mi NNE 11.5 mph - N/A   Scattered Clouds
9:52 AM 63.0 °F 52.0 °F 67% 29.95 in 10.0 mi NE 12.7 mph - N/A   Overcast
10:52 AM 64.9 °F 53.1 °F 65% 29.94 in 10.0 mi NE 11.5 mph - N/A   Clear
11:52 AM 66.9 °F 54.0 °F 63% 29.94 in 10.0 mi NE 11.5 mph - N/A   Clear
12:52 PM 68.0 °F 52.0 °F 56% 29.93 in 10.0 mi NE 13.8 mph 20.7 mph N/A   Clear
1:52 PM 70.0 °F 50.0 °F 49% 29.92 in 10.0 mi NNE 12.7 mph 16.1 mph N/A   Partly Cloudy
2:52 PM 71.1 °F 50.0 °F 47% 29.91 in 10.0 mi NE 10.4 mph 21.9 mph N/A   Partly Cloudy
3:52 PM 70.0 °F 46.9 °F 44% 29.91 in 10.0 mi NE 12.7 mph 17.3 mph N/A   Clear
4:52 PM 69.1 °F 48.0 °F 47% 29.92 in 10.0 mi ENE 9.2 mph - N/A   Clear
5:52 PM 68.0 °F 44.1 °F 42% 29.91 in 10.0 mi NE 10.4 mph - N/A   Clear
6:52 PM 66.9 °F 45.0 °F 45% 29.92 in 10.0 mi NE 8.1 mph - N/A   Clear
7:52 PM 64.9 °F 45.0 °F 48% 29.93 in 10.0 mi ENE 6.9 mph - N/A   Clear
8:52 PM 60.1 °F 46.9 °F 62% 29.94 in 10.0 mi ENE 5.8 mph - N/A   Clear
9:52 PM 57.0 °F 45.0 °F 64% 29.95 in 10.0 mi ENE 3.5 mph - N/A   Clear
10:52 PM 55.0 °F 42.1 °F 62% 29.95 in 10.0 mi East 3.5 mph - N/A   Clear
11:52 PM 53.1 °F 45.0 °F 74% 29.94 in 10.0 mi NE 3.5 mph - N/A   Clear